User: anonymous   Login
Location: Unspecified
(0.0000°N, 0.0000°E)
Time: 05:02:50
(UTC+00:00)
Language:

AGILE - Orbit

View from above orbital plane
View from above orbital plane
View from above satellite
View from above satellite

Ground track
Ground track

The orbit data is extracted from the following two-line orbital elements,

1 31135U 07013A   16240.98944402  .00002860  00000-0  61317-4 0  9995
2 31135   2.4672 230.1203 0013052 121.2118 238.9216 15.28458868518756
Epoch (UTC): 27 August 2016 23:44:47
Eccentricity: 0.0013052
inclination: 2.4672°
perigee height: 471 km
apogee height: 489 km
right ascension of ascending node: 230.1203°
argument of perigee: 121.2118°
revolutions per day: 15.28458868
mean anomaly at epoch: 238.9216°
orbit number at epoch: 51875

The dashed part of the orbit path shows where the satellite is in the earth's shadow,  

DLR